EW9698 Weather Reports


time (UTC)temp
F
wind
direction
speed
knots
gust
knots
rain 1hr
in
rain 24hr
in
rain mn
in
humidity
%
barometer
mb
20260505053501 42 5 2.6 6.1 0.00 0.00 0.00 62 1012.4
20260505053108 42 11 1.7 5.2 0.00 0.00 0.00 62 1012.3
20260505053000 42 13 2.6 5.2 0.00 0.00 0.00 62 1012.3
20260505052604 42 34 1.7 7.0 0.00 0.00 0.00 62 1012.4
20260505052101 42 14 3.5 7.8 0.00 0.00 0.00 62 1012.3
20260505051559 42 15 3.5 7.8 0.00 0.00 0.00 62 1012.1
20260505051102 42 24 5.2 7.8 0.00 0.00 0.00 62 1012.1
20260505050600 42 42 2.6 7.0 0.00 0.00 0.00 62 1012.1
20260505041557 43 5 5.2 9.6 0.00 0.00 0.00 63 1012.3
20260505041057 43 360 4.3 10.4 0.00 0.00 0.00 62 1012.3
20260505040559 43 329 5.2 10.4 0.00 0.00 0.00 62 1012.3
20260505040057 43 341 4.3 9.6 0.00 0.00 0.00 61 1012.4
20260505035556 43 336 5.2 11.3 0.00 0.00 0.00 62 1012.4
20260505035056 43 32 6.1 13.0 0.00 0.00 0.00 60 1012.4
20260505034556 44 24 7.8 13.0 0.00 0.00 0.00 59 1012.5
20260505034056 44 13 5.2 13.9 0.00 0.00 0.00 59 1012.4
20260505033555 44 40 7.8 13.9 0.00 0.00 0.00 59 1012.4
20260505033112 44 32 5.2 9.6 0.00 0.00 0.00 59 1012.3
20260505032554 44 28 5.2 9.6 0.00 0.00 0.00 59 1012.2
20260505032053 44 52 5.2 9.6 0.00 0.00 0.00 60 1012.0
20260505031550 44 19 6.1 12.2 0.00 0.00 0.00 59 1011.8
20260505031053 44 360 7.0 12.2 0.00 0.00 0.00 59 1011.8
20260505030551 44 26 7.8 14.8 0.00 0.00 0.00 59 1011.7
20260505030052 44 18 7.8 15.6 0.00 0.00 0.00 58 1011.7
20260505025549 45 25 9.6 15.6 0.00 0.00 0.00 57 1011.6
20260505025048 45 28 7.8 15.6 0.00 0.00 0.00 55 1011.5
20260505024547 45 18 10.4 15.6 0.00 0.00 0.00 55 1011.5
20260505024047 45 5 10.4 16.5 0.00 0.00 0.00 54 1011.4
20260505023546 45 11 11.3 16.5 0.00 0.00 0.00 54 1011.3
20260505023058 45 360 9.6 17.4 0.00 0.00 0.00 54 1011.3
20260505022549 45 28 9.6 17.4 0.00 0.00 0.00 54 1011.1
20260505022050 45 355 11.3 18.2 0.00 0.00 0.00 54 1011.1
20260505021545 45 340 13.0 18.2 0.00 0.00 0.00 54 1011.1
20260505021044 45 5 7.8 17.4 0.00 0.00 0.00 54 1011.1
20260505020545 45 355 10.4 18.2 0.00 0.00 0.00 54 1011.1
20260505020050 45 355 9.6 18.2 0.00 0.00 0.00 53 1011.2
20260505015544 46 50 12.2 17.4 0.00 0.00 0.00 54 1011.1
20260505015045 46 28 8.7 17.4 0.00 0.00 0.00 53 1010.9
20260505014542 46 347 11.3 17.4 0.00 0.00 0.00 53 1010.8
20260505014044 46 332 11.3 19.1 0.00 0.00 0.00 53 1010.7
20260505013544 46 347 13.0 19.1 0.00 0.00 0.00 52 1010.6
20260505013042 46 360 11.3 20.9 0.00 0.00 0.00 52 1010.6
20260505012542 47 330 12.2 20.9 0.00 0.00 0.00 51 1010.6
20260505012043 47 316 11.3 20.9 0.00 0.00 0.00 50 1010.6
20260505011541 47 340 8.7 19.1 0.00 0.00 0.00 50 1010.6
20260505011039 48 360 12.2 19.1 0.00 0.00 0.00 49 1010.7
20260505010539 48 350 9.6 18.2 0.00 0.00 0.00 48 1010.7
20260505010042 49 344 10.4 18.2 0.00 0.00 0.00 48 1010.8
20260505005538 49 360 8.7 17.4 0.00 0.00 0.00 48 1010.7
20260505005039 50 348 9.6 17.4 0.00 0.00 0.00 48 1010.6
20260505004546 50 360 10.4 17.4 0.00 0.00 0.00 50 1010.7
20260505004037 51 360 10.4 16.5 0.00 0.00 0.00 50 1010.7
20260505003537 51 11 8.7 15.6 0.00 0.00 0.00 50 1010.6
20260505003038 51 30 9.6 15.6 0.00 0.00 0.00 49 1010.6
20260505002537 52 45 9.6 16.5 0.00 0.00 0.00 49 1010.7
20260505002036 52 15 9.6 16.5 0.00 0.00 0.00 49 1010.7
20260505001535 53 49 8.7 15.6 0.00 0.00 0.00 49 1010.5
20260505001034 52 38 8.7 15.6 0.00 0.00 0.00 49 1010.5
20260505000534 53 360 8.7 16.5 0.00 0.00 0.00 49 1010.5
20260505000034 53 10 12.2 15.6 0.00 0.00 0.00 49 1010.5
20260504235530 53 34 6.1 13.9 0.00 0.00 0.00 49 1010.6
20260504235029 52 5 6.1 13.9 0.00 0.00 0.00 51 1010.4
20260504234536 52 355 7.0 13.0 0.00 0.00 0.00 51 1010.4
20260504234032 52 5 7.8 13.9 0.00 0.00 0.00 51 1010.5
20260504233529 52 15 7.0 14.8 0.00 0.00 0.00 50 1010.4
20260504233030 53 9 7.8 14.8 0.00 0.00 0.00 49 1010.4
20260504232529 54 355 6.1 15.6 0.00 0.00 0.00 48 1010.4
20260504232028 54 341 8.7 15.6 0.00 0.00 0.00 49 1010.5
20260504231538 52 304 8.7 15.6 0.00 0.00 0.00 50 1010.4
20260504231027 52 355 7.8 15.6 0.00 0.00 0.00 50 1010.3
20260504230527 52 304 7.0 14.8 0.00 0.00 0.00 50 1010.4
20260504230027 52 12 6.1 13.0 0.00 0.00 0.00 50 1010.3
20260504225528 52 5 8.7 13.9 0.00 0.00 0.00 49 1010.3
20260504225029 52 350 8.7 14.8 0.00 0.00 0.00 49 1010.3
20260504224528 52 339 8.7 14.8 0.00 0.00 0.00 49 1010.3
20260504224026 52 29 7.0 18.2 0.00 0.00 0.00 49 1010.2
20260504223526 53 5 12.2 18.2 0.00 0.00 0.00 49 1010.0
20260504223026 53 13 9.6 16.5 0.00 0.00 0.00 48 1010.1
20260504222528 53 5 8.7 14.8 0.00 0.00 0.00 49 1010.0
20260504222026 53 31 8.7 14.8 0.00 0.00 0.00 49 1010.0
20260504221526 53 32 9.6 20.9 0.00 0.00 0.00 48 1009.8
20260504221027 53 5 11.3 20.9 0.00 0.00 0.00 47 1009.9
20260504220524 54 9 11.3 21.7 0.00 0.00 0.00 47 1010.2
20260504220024 54 33 12.2 21.7 0.00 0.00 0.00 47 1009.9
20260504215524 54 342 10.4 20.9 0.00 0.00 0.00 47 1009.9
20260504215024 54 30 11.3 20.9 0.00 0.00 0.00 46 1010.0
20260504214532 54 11 11.3 18.2 0.00 0.00 0.00 47 1010.1
20260504214024 54 345 9.6 18.2 0.00 0.00 0.00 47 1010.2
20260504213526 54 360 9.6 18.2 0.00 0.00 0.00 47 1010.2
20260504213028 54 5 10.4 24.3 0.00 0.00 0.00 46 1009.9
20260504212523 54 21 13.0 24.3 0.00 0.00 0.00 46 1010.1
20260504212022 55 5 13.0 22.6 0.00 0.00 0.00 45 1010.1
20260504211522 56 337 10.4 20.9 0.00 0.00 0.00 44 1010.0
20260504211022 58 327 11.3 23.5 0.00 0.00 0.00 42 1010.2
20260504210525 59 11 12.2 18.2 0.00 0.00 0.00 42 1010.0
20260504210022 58 344 6.1 16.5 0.00 0.00 0.00 43 1010.0
20260504205524 58 331 10.4 20.9 0.00 0.00 0.00 44 1010.1
20260504205021 58 321 8.7 20.0 0.00 0.00 0.00 44 1010.0
20260504204550 59 5 9.6 20.0 0.00 0.00 0.00 42 1010.0
20260504204021 59 360 7.0 20.9 0.00 0.00 0.00 42 1009.9
20260504203522 58 348 10.4 20.9 0.00 0.00 0.00 45 1009.9
20260504203027 59 355 12.2 20.0 0.00 0.00 0.00 43 1010.0
20260504202522 58 325 8.7 19.1 0.00 0.00 0.00 44 1010.1
20260504202021 59 304 9.6 16.5 0.00 0.00 0.00 42 1010.0
20260504201520 59 319 9.6 20.9 0.00 0.00 0.00 43 1010.0
20260504201020 58 342 10.4 20.9 0.00 0.00 0.00 44 1010.1
20260504200520 58 319 12.2 22.6 0.00 0.00 0.00 44 1010.1
20260504200028 59 348 8.7 22.6 0.00 0.00 0.00 42 1010.0
20260504195519 59 17 7.0 14.8 0.00 0.00 0.00 43 1010.1
20260504195018 59 5 6.1 12.2 0.00 0.00 0.00 45 1010.2
20260504194520 56 22 5.2 11.3 0.00 0.00 0.00 48 1010.3
20260504194020 56 317 7.0 10.4 0.00 0.00 0.00 49 1010.3
20260504193517 56 337 4.3 10.4 0.00 0.00 0.00 50 1010.4
20260504193022 56 320 4.3 11.3 0.00 0.00 0.00 49 1010.5
20260504192515 57 321 7.0 11.3 0.00 0.00 0.00 47 1010.3
20260504192016 56 286 1.7 7.8 0.00 0.00 0.00 48 1010.4
20260504191515 55 18 2.6 12.2 0.00 0.00 0.00 49 1010.3
20260504191015 56 355 6.1 12.2 0.00 0.00 0.00 48 1010.5
20260504190515 56 336 2.6 9.6 0.00 0.00 0.00 48 1010.5
20260504190014 56 14 4.3 9.6 0.00 0.00 0.00 47 1010.5
20260504185516 56 53 1.7 10.4 0.00 0.00 0.00 50 1010.5
20260504185012 55 14 4.3 13.0 0.00 0.00 0.00 49 1010.6
20260504184511 55 341 7.0 13.0 0.00 0.00 0.00 50 1010.6
20260504184017 55 5 5.2 14.8 0.00 0.00 0.00 50 1010.5
20260504183511 55 34 7.0 16.5 0.00 0.00 0.00 51 1010.6
20260504183011 55 62 9.6 16.5 0.00 0.00 0.00 50 1010.5
20260504182509 54 58 5.2 17.4 0.00 0.00 0.00 51 1010.5
20260504182010 53 26 12.2 17.4 0.00 0.00 0.00 54 1010.7
20260504181511 52 40 10.4 18.2 0.00 0.00 0.00 55 1010.8
20260504181008 52 57 10.4 18.2 0.00 0.00 0.00 54 1010.8
20260504180512 51 42 12.2 17.4 0.00 0.00 0.00 56 1010.8
20260504180008 50 34 9.6 14.8 0.00 0.00 0.00 56 1010.8
20260504175507 51 22 8.7 13.9 0.00 0.00 0.00 56 1010.7
20260504175007 51 11 7.8 19.1 0.00 0.00 0.00 54 1010.7
20260504174507 50 59 7.8 19.1 0.00 0.00 0.00 54 1009.9
20260504174008 51 65 13.0 18.2 0.00 0.00 0.00 53 1010.2
20260504173508 51 43 12.2 18.2 0.00 0.00 0.00 52 1010.6
20260504173008 53 43 11.3 19.1 0.00 0.00 0.00 51 1011.0
20260504172505 54 34 12.2 19.1 0.00 0.00 0.00 51 1010.9
20260504172006 53 34 9.6 18.2 0.00 0.00 0.00 50 1010.8
20260504171516 54 40 11.3 20.9 0.00 0.00 0.00 49 1010.7
20260504171007 54 49 10.4 18.2 0.00 0.00 0.00 51 1010.4
20260504170502 53 32 10.4 18.2 0.00 0.00 0.00 52 1010.5
20260504151048 50 59 13.9 19.1 0.00 0.00 0.00 56 1009.3
20260504150550 49 50 10.4 24.3 0.00 0.00 0.00 60 1009.4
20260504141045 49 52 11.3 22.6 0.00 0.00 0.00 63 1008.9
20260504140544 50 5 11.3 21.7 0.00 0.00 0.00 60 1009.0
20260504130529 45 270 0.9 5.2 0.00 0.00 0.00 73 1007.5
20260504110517 40 238 3.5 4.3 0.00 0.00 0.00 67 1007.3
20260504100508 40 257 4.3 6.1 0.00 0.00 0.00 75 1007.7
20260504081549 39 263 3.5 5.2 0.00 0.00 0.00 80 1008.5
20260504081049 39 239 2.6 4.3 0.00 0.00 0.00 80 1008.5
20260504080549 39 258 1.7 3.5 0.00 0.00 0.00 81 1008.6